Wind_Speed
28 28 29 29 30 29 28 26 24 23 23 21 19 16 13 13 12 12 12 13 12 10 8 8 9 9 10 10 11 12 13 14 15 16 17 17 18 19 20 22 23 25 26 26 27 27 28 28 28 28 28 28 29 29 29 29 29 29 29 29 29 29 29 29 29 29 29 29 30
28 29 30 31 31 29 26 24 23 23 23 21 19 16 14 13 12 11 11 11 9 7 7 8 8 9 10 12 12 13 14 15 16 17 18 19 20 21 22 24 24 25 26 26 27 27 28 28 28 28 29 29 29 29 29 29 29 29 29 29 29 29 29 29 29 29 29 29 29
29 30 31 31 30 27 24 22 22 22 21 19 17 15 14 13 12 11 10 8 7 7 7 8 8 9 11 12 13 14 15 16 17 17 18 19 21 22 23 24 24 25 26 26 27 28 28 28 29 29 29 29 29 29 30 29 29 29 29 29 29 29 29 29 29 29 28 28 28
29 30 30 29 26 24 23 24 23 21 18 16 14 14 14 13 12 11 9 7 7 8 9 9 10 11 12 13 14 14 15 16 17 18 19 20 22 23 24 24 25 26 27 27 28 28 29 29 29 29 30 30 30 30 30 30 29 29 29 29 29 29 29 29 28 28 28 28 28
29 29 29 26 23 22 22 21 19 16 13 13 12 13 13 12 10 8 7 8 9 10 10 11 13 13 14 15 15 16 16 17 18 19 20 21 23 24 25 26 26 27 27 28 29 29 29 29 29 29 29 30 29 29 29 29 29 29 29 29 29 28 28 28 28 28 28 28 28
28 28 27 25 22 20 18 17 15 13 13 13 14 12 10 9 8 7 8 9 10 11 12 13 14 15 15 16 16 16 17 18 19 20 21 22 24 25 26 26 27 28 28 28 29 29 29 29 29 29 29 29 29 29 29 28 28 28 28 29 28 28 28 28 28 28 28 28 28
26 25 22 20 19 19 20 19 19 17 16 15 15 12 10 9 8 8 8 9 11 12 13 14 15 15 15 16 16 17 18 19 20 21 22 23 24 25 26 27 27 27 28 28 28 28 28 28 28 29 29 29 29 28 28 28 28 28 28 28 28 28 28 28 28 28 28 29 29
22 20 19 18 18 19 20 21 20 18 16 15 14 12 11 10 9 9 10 11 12 14 14 14 14 15 15 16 17 18 19 20 21 22 23 24 25 25 26 26 26 27 27 27 27 27 27 27 28 28 28 28 28 28 27 27 27 27 28 28 29 29 29 29 29 29 29 30 30
18 17 16 15 16 17 19 20 18 16 15 14 13 12 11 11 11 12 13 14 14 14 14 14 14 14 15 16 17 19 20 21 22 23 24 24 24 25 25 25 25 26 26 26 26 26 27 27 27 27 27 27 27 27 27 27 27 28 28 29 29 30 30 30 30 30 31 31 32
14 14 14 14 14 15 16 16 15 15 15 14 12 12 12 12 13 13 14 14 13 13 12 13 13 14 16 17 18 19 20 22 22 23 23 23 23 23 24 24 25 25 26 26 26 26 27 27 27 28 28 28 28 28 28 28 28 29 30 30 31 31 31 31 31 31 32 32 33
12 13 13 14 14 14 14 14 14 13 13 12 12 11 12 13 13 13 12 12 11 12 13 14 15 16 17 18 18 19 20 21 22 22 22 23 23 24 24 25 25 26 26 27 27 27 27 28 28 28 29 29 29 29 29 30 30 31 31 32 32 33 33 33 33 33 33 33 33
11 12 13 13 13 12 12 12 11 10 9 8 8 9 9 9 10 10 10 11 12 13 15 15 15 16 17 18 19 19 20 21 22 22 23 23 24 24 25 25 26 27 27 27 28 28 28 28 29 29 29 29 29 30 30 31 31 31 32 32 33 33 33 34 34 34 34 34 34
10 11 11 11 11 10 10 9 8 7 6 6 7 7 7 7 8 9 11 13 14 15 15 15 15 16 17 18 19 20 21 21 22 22 23 24 24 25 25 26 26 27 27 27 28 28 28 28 29 29 29 29 29 30 30 31 31 32 32 32 33 33 33 33 34 34 33 34 34
10 10 10 10 10 9 8 7 6 6 7 7 8 8 8 9 10 12 13 14 14 14 14 15 16 17 18 19 20 21 22 22 23 23 24 24 25 25 26 26 27 27 27 27 27 28 28 28 29 29 29 29 30 30 30 31 31 32 32 32 33 33 33 33 33 33 33 33 34
11 11 10 10 10 8 7 7 7 8 8 8 10 11 12 13 14 14 13 13 13 14 15 16 17 18 19 20 21 22 22 23 23 24 24 25 25 26 26 27 27 27 27 28 28 28 28 29 29 29 30 30 30 31 31 31 32 32 32 33 33 33 33 34 34 34 33 34 34
13 11 10 9 9 8 8 9 9 9 10 11 12 13 14 14 14 13 12 13 14 15 16 18 19 20 20 21 22 22 23 23 24 24 24 25 26 26 26 27 27 28 28 28 29 29 29 29 30 30 31 31 31 31 32 32 32 32 33 33 34 34 34 34 34 34 34 34 34
11 10 10 10 10 10 10 10 10 11 12 12 13 14 14 13 12 11 12 14 15 17 18 19 20 21 22 23 23 23 24 24 24 24 25 25 26 26 27 27 28 28 29 29 29 30 30 30 30 30 31 31 32 32 32 32 33 33 33 34 34 34 34 34 34 34 34 33 34
10 10 10 10 11 11 10 10 10 11 12 13 13 12 11 11 11 12 14 15 17 18 20 21 22 23 23 24 24 24 24 25 25 25 26 26 27 27 28 28 28 29 29 29 29 30 30 30 30 31 31 31 32 32 33 33 33 33 34 34 34 34 34 34 34 34 34 34 34
10 10 11 11 10 10 10 10 11 12 12 11 10 10 10 11 13 14 16 17 18 20 21 22 23 24 24 25 25 25 25 25 26 26 27 27 28 28 29 29 29 29 29 29 29 30 30 31 31 31 31 32 32 32 33 33 33 33 33 34 34 35 35 35 36 36 36 36 36
11 11 10 9 9 9 11 12 13 12 10 9 9 10 12 13 15 16 18 19 20 21 22 23 24 24 25 25 25 25 25 26 26 27 28 29 29 30 30 30 30 30 30 30 30 30 30 30 31 31 31 32 32 32 32 33 33 33 34 35 35 36 36 36 37 37 37 38 38
10 9 8 8 9 10 10 10 10 9 8 9 11 13 14 16 17 18 18 19 21 22 23 23 24 24 24 25 25 26 26 27 28 29 30 31 31 32 31 31 31 31 30 30 30 30 30 30 30 31 31 31 32 32 32 33 33 34 34 35 35 35 36 36 36 36 36 35 36
7 7 6 7 8 8 8 8 8 8 10 12 13 15 16 17 17 18 19 20 21 22 22 22 23 24 24 25 26 27 28 29 30 31 31 32 32 32 32 31 31 31 30 30 30 30 30 30 30 30 30 31 31 31 31 32 33 33 33 33 33 34 34 34 34 34 34 35 36
5 5 5 6 7 7 8 8 9 11 13 14 15 16 16 16 17 18 19 20 21 21 22 22 23 24 25 27 28 29 30 31 31 31 32 32 31 31 31 30 30 30 30 30 30 30 30 30 30 30 30 30 30 30 31 31 32 32 32 32 32 33 33 33 34 35 35 37 39
9 9 10 10 9 9 9 10 12 13 14 15 15 15 16 16 17 18 19 20 20 21 22 23 25 26 27 28 29 30 30 31 31 31 31 31 31 31 30 30 29 29 30 30 29 29 30 30 30 30 30 31 31 31 32 32 32 33 33 33 33 34 35 37 37 38 39 41 42
19 19 18 15 12 11 11 13 13 14 14 14 15 15 15 16 17 18 19 19 20 22 23 25 27 28 29 29 29 30 30 30 30 30 30 30 30 30 29 29 29 29 29 30 30 30 30 30 30 31 32 32 31 32 32 32 33 34 35 35 36 38 39 41 41 42 43 43 43
23 20 16 12 11 11 12 13 13 14 14 14 14 15 16 16 17 17 19 20 22 24 26 27 28 28 29 29 29 29 29 29 29 29 29 29 29 29 29 29 29 29 30 30 30 30 30 30 31 31 32 33 33 33 34 35 35 36 36 37 38 39 40 41 42 42 42 41 41
16 12 9 9 9 11 12 13 13 13 13 14 15 16 16 17 17 19 20 22 24 26 27 27 27 27 27 27 27 27 27 28 28 28 28 28 29 29 29 29 30 30 30 31 31 31 31 31 31 31 31 32 33 34 35 36 36 36 37 38 39 39 41 42 43 43 43 42 40
8 8 9 10 11 12 13 13 13 13 14 15 16 16 17 18 19 21 23 24 26 26 27 27 27 27 26 26 26 27 27 27 28 28 28 28 29 29 29 30 30 30 31 31 31 31 31 30 31 31 32 33 34 35 36 37 38 38 39 39 39 40 41 42 42 41 40 39 37
8 9 11 12 13 13 13 13 14 14 15 16 16 18 19 20 22 23 24 25 26 26 26 26 27 27 26 27 27 28 28 28 28 28 28 28 29 29 30 30 31 31 31 31 31 30 31 31 31 32 33 34 36 37 38 39 39 39 40 40 40 40 40 39 38 37 36 35 34
10 12 12 13 13 14 14 15 15 15 16 17 18 19 21 23 24 25 25 26 26 26 27 27 27 27 27 27 27 27 27 27 27 28 28 28 29 30 30 31 31 31 31 31 31 30 31 32 33 34 36 37 39 40 42 42 42 41 40 39 38 37 35 34 33 32 33 33 33
12 13 13 13 14 14 14 14 14 15 16 18 20 22 23 25 25 26 26 27 27 27 27 27 27 26 27 27 26 27 27 27 28 28 28 29 30 30 31 32 32 31 31 30 30 31 32 33 35 37 38 40 41 42 42 41 39 37 35 33 32 31 30 31 31 32 32 33 33
13 13 13 13 13 13 13 13 14 16 18 20 22 24 25 26 27 27 28 28 28 27 27 26 26 26 26 26 26 27 27 28 28 28 29 30 30 31 32 32 31 31 30 30 31 32 34 36 38 39 40 40 39 37 35 32 30 28 28 28 29 29 30 30 31 31 32 32 32
13 12 12 11 12 12 13 14 16 18 20 22 24 26 27 27 28 28 28 28 27 26 25 25 25 25 26 26 27 27 28 28 29 30 30 30 31 31 32 31 31 30 30 31 33 35 37 38 39 39 38 35 32 29 26 24 24 25 27 28 29 29 30 30 30 31 31 31 32
14 13 12 11 11 12 14 15 17 19 22 24 25 27 28 28 29 28 28 27 26 25 24 24 24 25 26 26 27 28 28 29 30 30 31 31 31 31 31 31 31 31 32 34 36 38 39 39 37 35 31 28 25 23 23 23 24 26 28 29 29 29 30 30 30 31 31 31 31
12 12 11 11 11 13 14 16 18 20 21 23 25 27 28 28 28 27 26 25 24 24 24 24 25 25 26 27 27 28 29 29 30 30 31 31 31 31 31 32 33 34 36 37 39 39 37 35 31 27 24 22 21 22 23 25 26 28 29 30 30 31 31 31 31 31 31 31 32
9 9 9 10 12 13 14 16 17 19 21 23 26 27 28 27 27 26 24 24 23 24 24 25 26 26 26 27 27 28 29 29 30 30 30 30 31 31 32 34 35 37 39 39 39 36 32 28 24 21 20 20 21 23 25 27 29 31 31 32 33 33 32 32 32 32 32 31 31
7 8 9 10 11 12 14 16 18 21 23 25 26 26 26 25 25 24 23 23 23 24 25 26 26 26 27 27 28 28 29 29 30 30 30 30 31 32 33 35 38 40 40 38 35 30 26 22 20 19 19 21 23 25 27 30 31 33 33 34 34 33 33 33 32 32 31 31 30
7 8 9 10 11 13 16 19 22 24 25 25 25 25 24 24 23 23 23 23 24 25 25 26 26 27 27 28 28 29 30 30 30 30 30 31 31 33 35 37 39 40 38 34 29 25 22 20 19 19 20 23 25 28 30 32 33 34 35 35 34 33 32 31 30 30 29 28 28
9 9 10 11 13 17 21 24 25 25 24 24 23 23 24 23 23 24 24 24 24 24 25 26 26 27 28 28 29 30 30 30 30 29 30 31 33 35 37 38 39 37 33 29 25 22 21 20 20 21 22 25 28 30 32 34 35 36 36 35 33 32 30 28 26 26 26 27 28
10 11 12 14 18 21 24 25 24 23 22 22 23 23 24 24 24 24 24 24 24 24 25 26 27 28 28 29 29 30 30 30 30 30 31 32 34 36 37 37 36 33 30 26 23 22 21 21 22 23 25 27 30 33 34 35 35 35 33 31 29 27 26 25 25 26 28 31 33
12 13 15 18 22 24 25 24 23 22 22 22 23 24 24 24 24 24 24 24 24 25 26 27 28 29 29 29 29 30 30 30 31 31 32 33 35 36 36 34 32 30 27 25 24 23 22 22 23 24 26 29 32 33 33 31 30 29 27 25 24 25 26 28 30 33 35 35 36
Wind_Direction
234 229 225 224 223 221 219 220 224 231 236 239 242 242 238 232 225 219 223 234 234 231 228 231 238 246 254 260 267 273 276 276 276 276 276 277 278 280 281 281 281 281 282 283 285 286 287 287 286 285 284 283 282 281 280 279 278 277 276 275 274 274 274 273 273 273 273 273 273
226 224 224 224 223 221 220 224 232 240 245 246 244 238 228 219 211 209 218 232 225 218 223 234 244 253 259 265 270 273 276 276 276 277 278 279 280 281 281 282 282 283 285 287 288 289 290 290 289 287 285 284 282 281 279 278 277 276 275 274 274 274 273 273 273 273 273 273 273
222 223 224 223 222 221 224 232 242 248 250 246 240 231 220 212 208 218 226 218 212 219 234 246 256 263 268 270 273 274 275 277 278 279 280 281 283 283 283 284 285 287 289 291 292 293 293 292 291 288 286 284 282 280 279 278 277 276 275 274 274 273 273 273 273 273 273 273 272
222 223 222 221 221 225 234 244 251 253 250 243 235 225 218 217 222 226 225 222 229 240 250 258 265 270 274 276 276 276 277 278 279 281 282 283 284 284 284 285 288 290 292 294 295 295 295 294 292 289 287 284 282 280 279 278 277 275 274 274 273 273 272 272 272 272 272 272 272
223 223 224 225 227 235 243 249 250 247 239 228 220 215 215 220 221 224 231 240 247 253 259 264 269 273 276 276 277 277 278 279 281 282 284 286 285 285 286 288 290 292 294 295 296 296 296 295 292 289 286 284 282 280 279 278 277 275 274 273 272 272 271 271 271 271 271 271 271
226 228 230 234 238 242 243 241 238 230 219 212 207 204 204 210 218 229 240 248 254 260 265 270 274 276 277 277 277 277 279 281 282 285 286 287 287 287 288 290 292 293 294 295 295 295 294 292 289 286 284 282 281 279 278 277 276 275 273 272 272 271 270 270 270 271 271 271 271
232 233 235 238 241 242 241 238 236 231 221 211 204 201 203 212 225 238 249 256 263 269 273 276 278 278 278 277 277 278 279 282 284 287 288 288 288 288 289 291 292 292 292 292 292 291 290 288 285 282 281 279 278 277 276 275 274 273 272 271 271 270 269 269 269 270 270 270 270
236 238 241 243 243 241 240 239 237 230 219 208 204 208 217 228 239 251 261 268 274 278 279 280 279 278 277 277 278 279 280 282 286 287 287 287 288 288 289 290 290 290 290 290 289 288 286 284 282 280 279 278 277 276 275 274 273 272 271 271 271 270 269 269 269 269 269 269 270
243 245 246 243 240 239 239 239 231 221 213 210 213 222 232 243 255 264 270 275 279 281 280 279 279 279 280 280 281 282 284 286 287 287 287 287 288 288 289 289 289 289 289 288 288 287 286 284 282 281 280 279 278 277 277 276 275 274 273 272 272 271 270 270 269 269 269 270 270
247 245 242 237 235 234 234 233 225 220 219 223 231 240 248 258 267 274 277 279 280 280 279 279 281 283 284 284 285 286 288 289 288 287 286 287 287 288 288 288 288 288 288 288 287 287 286 284 283 281 280 279 278 278 277 276 275 274 273 273 272 272 272 271 271 270 270 270 270
245 240 237 234 234 232 230 228 227 228 231 238 247 255 263 269 274 277 279 278 277 276 277 280 283 285 286 286 287 288 289 289 288 287 286 287 287 287 287 287 287 287 287 286 286 285 284 283 281 280 279 278 277 277 276 275 274 274 273 273 272 272 272 272 271 271 271 270 270
240 236 233 231 229 227 225 225 226 231 237 245 254 263 267 269 270 271 271 271 273 276 279 283 284 285 286 287 287 288 288 288 287 286 285 286 286 286 286 286 286 286 286 285 285 284 283 282 280 280 279 278 277 276 275 275 274 274 273 273 272 272 272 272 272 271 271 271 271
229 225 222 219 217 215 214 215 217 225 236 246 252 257 259 258 260 265 270 274 279 282 285 286 286 286 286 287 288 288 287 286 284 285 285 285 286 286 286 286 286 286 286 285 285 284 283 282 281 280 279 278 277 276 276 275 275 274 274 274 274 273 273 273 272 272 272 272 271
208 207 207 205 204 204 205 208 217 230 240 245 249 252 254 258 265 273 279 283 286 287 287 286 286 286 287 287 287 286 285 284 285 286 286 286 287 287 287 287 287 287 286 286 285 284 283 282 281 280 280 279 278 277 277 276 276 275 275 275 275 274 274 274 274 274 273 273 272
200 199 200 203 204 208 215 226 236 243 246 247 252 257 263 271 278 285 288 288 287 286 286 285 286 287 286 285 284 283 284 285 286 287 287 288 288 288 288 288 288 288 287 286 285 284 283 282 281 281 280 279 279 278 278 277 276 276 276 275 275 275 275 275 275 274 274 274 273
209 209 213 220 228 237 245 251 253 255 256 259 264 271 278 286 292 294 291 287 286 286 285 286 286 285 284 283 283 284 286 287 287 287 287 287 289 289 289 289 288 288 288 287 286 285 284 282 281 281 280 279 279 278 278 278 277 277 276 276 276 276 275 275 275 275 275 274 274
223 229 239 248 256 260 263 265 265 266 268 273 278 285 292 298 298 293 288 286 286 286 286 286 284 283 282 284 286 287 288 288 288 288 287 287 288 289 289 288 288 288 288 287 286 285 284 283 282 281 280 280 279 278 278 278 277 277 276 276 276 276 275 275 275 275 275 275 274
249 255 261 265 267 268 268 268 270 273 277 283 289 294 297 296 290 286 285 285 286 286 285 284 282 283 284 287 289 290 289 289 288 288 288 288 288 288 288 288 288 288 288 287 286 285 285 284 283 282 281 280 279 278 278 278 277 277 276 276 276 275 275 275 275 275 275 275 274
261 266 268 269 268 265 263 264 268 274 280 286 290 291 288 284 282 283 285 286 286 285 284 282 283 286 288 290 291 291 290 289 288 288 288 289 289 289 289 289 288 288 287 286 285 285 284 283 283 282 281 280 280 279 278 278 277 277 276 276 276 276 275 275 274 274 273 273 272
262 264 265 264 261 261 263 267 271 276 280 283 281 279 278 280 282 283 284 285 285 284 283 285 287 290 292 292 292 291 291 290 289 289 289 290 290 290 290 290 289 289 288 287 286 284 284 283 283 282 282 281 281 280 279 278 278 278 277 277 277 276 275 274 273 272 271 270 269
261 261 260 259 259 262 266 271 275 277 277 275 275 276 279 281 283 283 283 284 284 285 287 289 290 292 292 292 291 291 291 290 290 290 291 292 292 292 292 292 291 290 289 288 287 286 285 285 285 284 284 283 282 281 280 280 280 280 279 279 278 277 275 274 272 271 269 268 267
258 258 259 260 260 262 263 265 268 270 271 273 277 280 281 283 283 283 283 284 286 288 290 291 291 291 291 291 290 291 291 292 292 293 294 295 295 296 296 294 293 291 290 289 288 288 288 287 286 285 284 283 282 281 280 280 280 280 280 278 277 276 275 273 272 271 269 269 268
249 254 257 257 256 255 256 259 264 269 274 277 280 282 283 284 284 284 285 287 289 291 291 291 290 290 290 291 291 292 293 294 296 297 298 298 298 298 297 295 293 292 292 290 290 289 288 288 287 285 284 283 282 281 280 279 279 278 277 276 275 274 273 273 272 271 271 270 270
244 252 255 254 252 253 257 263 270 275 279 281 282 283 284 284 284 286 288 290 291 292 291 291 291 292 293 293 294 295 296 297 298 300 301 301 300 299 297 295 293 293 292 291 290 289 288 287 286 286 285 284 283 281 280 279 277 276 275 274 274 273 272 272 272 272 273 274 274
264 267 268 265 261 261 265 271 277 280 281 282 282 283 283 284 286 289 290 291 292 292 292 292 294 295 296 297 298 299 299 300 300 301 301 301 300 298 296 293 291 291 291 291 290 289 288 287 287 287 287 286 284 282 280 279 277 275 274 274 274 274 274 274 274 275 276 277 277
278 279 278 274 270 270 272 275 277 278 279 280 281 282 285 287 290 291 292 292 293 294 295 297 299 300 301 301 301 301 301 301 301 300 299 298 297 295 293 291 290 290 291 290 290 289 288 288 288 288 287 285 283 281 280 278 278 277 277 277 276 276 277 277 278 278 278 278 278
285 282 277 272 268 267 268 270 271 273 275 278 281 285 288 291 293 294 294 295 297 299 301 302 303 303 303 302 301 301 301 300 299 297 296 295 294 293 292 291 291 291 291 290 290 290 290 290 289 287 285 283 281 280 280 280 280 280 279 279 279 279 279 279 279 279 279 279 278
281 268 260 257 257 258 262 266 269 272 275 280 285 289 293 295 296 298 299 301 302 304 305 305 305 304 303 301 300 300 299 299 298 296 295 294 293 293 292 291 291 291 291 291 290 290 290 289 287 285 282 281 280 280 280 280 281 281 281 281 280 280 279 279 279 279 279 279 278
261 256 254 253 255 258 262 265 269 273 279 284 289 294 297 300 302 303 304 305 306 306 306 305 305 304 303 301 301 301 300 299 298 297 296 296 295 294 293 293 292 292 291 291 290 290 288 286 284 281 280 279 279 279 280 281 282 282 282 281 280 279 279 279 279 280 280 280 279
254 255 255 256 258 259 262 266 272 277 283 288 294 299 303 305 306 306 306 306 306 306 306 306 306 304 304 303 303 302 301 300 299 299 298 296 295 294 293 293 293 292 292 291 290 288 286 284 281 280 279 279 280 280 281 282 282 282 281 281 280 280 280 281 281 281 281 281 280
254 256 257 258 259 261 265 270 275 281 286 293 299 304 307 308 308 307 307 307 308 309 309 308 307 305 304 304 303 302 301 301 300 298 297 296 295 294 293 293 293 293 292 291 289 287 285 283 282 282 282 283 284 284 284 284 283 283 283 283 283 284 285 285 284 284 283 283 282
256 257 257 257 258 262 268 273 278 283 291 298 305 308 309 309 309 309 309 310 311 311 310 308 307 305 304 303 302 302 301 300 299 297 296 295 295 295 295 294 294 293 292 291 288 286 285 285 285 287 288 288 288 288 287 287 287 288 288 289 289 289 288 288 287 286 286 285 284
255 254 254 256 260 265 271 276 281 289 297 304 308 310 310 309 310 311 311 312 312 310 308 307 305 304 303 303 302 301 300 299 298 297 297 296 296 296 296 295 294 293 292 290 288 288 288 289 291 291 292 291 291 292 292 293 293 293 293 292 292 292 291 291 290 289 288 287 286
251 252 255 259 264 268 273 279 288 296 303 308 310 310 310 309 310 311 312 312 311 309 306 304 303 302 302 302 301 301 300 299 299 298 298 298 298 297 296 295 294 293 292 291 291 292 293 294 295 295 295 295 296 298 298 298 298 297 296 295 295 296 295 294 293 291 290 289 288
250 254 258 260 265 271 279 288 296 302 305 307 308 309 309 310 310 311 311 311 309 306 304 303 302 302 302 301 301 300 300 300 299 299 299 298 298 297 296 295 293 293 293 294 295 297 298 298 298 298 299 301 303 304 304 302 301 300 300 299 299 298 297 296 294 293 291 290 288
249 252 257 262 270 280 289 297 302 304 305 306 307 308 309 310 310 310 309 308 306 304 304 304 304 304 303 303 302 302 301 301 300 300 299 299 298 297 296 295 294 295 297 299 300 301 301 301 302 304 307 310 310 309 308 306 304 303 302 300 299 298 297 295 294 292 291 289 288
249 254 262 273 284 293 300 304 306 307 307 307 307 307 308 308 308 308 307 306 305 305 305 305 305 305 305 304 303 302 301 301 301 300 299 298 297 296 296 296 297 299 301 303 304 304 305 306 308 312 315 315 314 311 309 306 304 302 300 299 297 296 295 294 292 291 289 288 288
253 263 274 287 295 301 305 308 310 310 308 307 306 306 306 307 307 306 306 306 306 306 306 306 306 306 305 304 303 302 302 301 301 300 299 298 297 296 297 298 300 302 305 306 307 308 310 312 315 318 319 318 314 310 307 303 301 299 297 296 295 294 293 292 290 289 288 288 288
260 272 284 294 301 306 310 313 313 311 307 305 304 304 305 306 306 307 307 307 307 307 306 306 306 305 305 304 304 303 302 302 301 300 299 298 297 298 299 300 302 305 308 311 312 313 315 317 319 320 320 317 312 307 303 300 297 296 295 295 294 293 292 291 290 289 289 290 290
268 279 290 299 306 311 315 315 313 309 305 303 303 304 306 307 308 309 309 309 308 307 306 306 305 305 305 305 304 303 303 302 301 300 299 298 299 300 301 303 305 309 312 315 316 317 318 319 319 319 318 314 309 304 300 298 296 295 295 295 295 294 294 293 292 292 292 292 292
278 289 299 308 314 317 317 315 311 307 305 304 305 306 308 310 310 311 310 310 308 307 307 306 306 306 306 305 304 304 303 302 301 300 299 299 301 302 304 306 308 312 315 318 319 318 318 317 317 317 314 311 306 304 302 300 300 300 300 300 299 298 298 298 297 296 296 295 294
Height
1473 1473 1473 1473 1473 1474 1475 1477 1478 1479 1480 1481 1481 1482 1482 1481 1481 1480 1480 1481 1482 1482 1483 1483 1483 1484 1484 1484 1484 1484 1484 1483 1483 1483 1483 1483 1483 1483 1483 1482 1482 1482 1481 1480 1479 1479 1478 1478 1477 1476 1475 1474 1474 1473 1473 1472 1472 1471 1471 1470 1469 1469 1468 1468 1468 1467 1467 1467 1466
1469 1469 1469 1470 1471 1473 1474 1476 1477 1478 1479 1480 1480 1480 1480 1480 1479 1479 1479 1480 1481 1481 1481 1482 1482 1482 1482 1482 1482 1482 1482 1482 1482 1482 1482 1482 1481 1481 1481 1480 1480 1479 1478 1478 1477 1477 1476 1475 1474 1473 1473 1472 1471 1471 1470 1470 1469 1469 1468 1468 1467 1467 1466 1466 1465 1465 1464 1464 1464
1466 1466 1468 1468 1470 1471 1473 1475 1476 1477 1478 1478 1479 1479 1478 1478 1478 1478 1479 1479 1479 1479 1480 1480 1481 1481 1481 1481 1481 1481 1481 1481 1481 1480 1480 1480 1480 1479 1479 1478 1478 1477 1476 1476 1475 1474 1473 1473 1472 1471 1470 1469 1469 1468 1468 1467 1467 1467 1466 1465 1465 1464 1464 1463 1463 1463 1462 1462 1462
1464 1465 1466 1467 1469 1471 1473 1474 1476 1477 1477 1477 1477 1477 1477 1477 1478 1478 1478 1478 1478 1478 1479 1479 1479 1479 1479 1479 1479 1479 1479 1479 1479 1479 1478 1478 1478 1477 1477 1476 1475 1475 1474 1473 1473 1472 1471 1470 1470 1469 1468 1467 1466 1466 1465 1465 1465 1464 1463 1463 1463 1462 1462 1461 1461 1460 1460 1460 1459
1463 1464 1465 1467 1468 1470 1472 1473 1474 1475 1475 1476 1476 1476 1476 1477 1477 1477 1477 1477 1477 1477 1478 1478 1478 1478 1478 1478 1478 1478 1478 1478 1478 1477 1477 1476 1476 1475 1474 1474 1473 1473 1472 1471 1470 1469 1469 1468 1467 1466 1465 1465 1464 1463 1463 1463 1462 1462 1461 1461 1460 1460 1459 1459 1458 1458 1458 1458 1457
1463 1463 1465 1467 1469 1470 1471 1472 1472 1473 1473 1474 1474 1475 1475 1476 1476 1475 1475 1475 1476 1476 1476 1476 1476 1476 1476 1476 1476 1476 1476 1476 1476 1476 1475 1474 1474 1473 1472 1472 1471 1470 1469 1468 1468 1467 1466 1466 1465 1464 1463 1463 1462 1461 1461 1461 1460 1459 1459 1458 1458 1458 1457 1457 1456 1456 1456 1455 1455
1463 1464 1465 1467 1468 1468 1469 1469 1470 1471 1472 1473 1473 1474 1474 1474 1474 1474 1474 1474 1474 1475 1475 1475 1475 1475 1475 1475 1475 1475 1474 1474 1474 1473 1473 1472 1471 1471 1470 1469 1468 1468 1467 1466 1465 1464 1464 1463 1463 1461 1461 1460 1459 1459 1458 1458 1458 1457 1457 1456 1456 1455 1455 1455 1454 1454 1453 1453 1453
1463 1464 1465 1466 1466 1467 1467 1468 1469 1470 1471 1472 1472 1472 1472 1472 1472 1472 1473 1473 1473 1473 1474 1474 1474 1474 1474 1473 1473 1473 1473 1472 1472 1471 1470 1470 1469 1468 1467 1467 1466 1465 1464 1464 1463 1462 1462 1461 1460 1459 1458 1458 1457 1457 1456 1456 1456 1455 1454 1454 1453 1453 1453 1453 1452 1452 1451 1451 1450
1463 1464 1465 1466 1466 1466 1467 1467 1468 1469 1470 1470 1470 1470 1471 1471 1471 1471 1471 1472 1472 1472 1473 1473 1473 1472 1472 1472 1472 1471 1471 1470 1469 1469 1468 1467 1467 1466 1465 1464 1463 1463 1462 1462 1461 1460 1460 1459 1458 1457 1457 1456 1455 1455 1454 1454 1454 1453 1453 1452 1451 1451 1451 1450 1450 1449 1449 1448 1448
1464 1464 1465 1466 1465 1466 1467 1467 1467 1468 1468 1469 1469 1469 1469 1469 1470 1470 1470 1471 1471 1471 1471 1471 1471 1471 1471 1470 1470 1470 1469 1468 1468 1467 1466 1466 1465 1464 1463 1463 1462 1462 1461 1460 1460 1459 1458 1458 1457 1456 1455 1454 1454 1453 1453 1452 1452 1451 1450 1450 1449 1448 1448 1448 1448 1447 1447 1446 1446
1464 1464 1465 1465 1465 1466 1466 1466 1466 1467 1467 1468 1468 1468 1468 1469 1469 1469 1470 1470 1470 1470 1470 1470 1470 1470 1469 1469 1469 1468 1468 1467 1467 1466 1465 1464 1464 1463 1462 1462 1461 1460 1459 1459 1458 1457 1457 1455 1454 1454 1453 1452 1452 1451 1450 1450 1449 1449 1448 1447 1447 1446 1446 1445 1445 1445 1444 1444 1443
1464 1464 1465 1465 1465 1465 1465 1465 1465 1466 1466 1467 1467 1468 1468 1468 1469 1469 1469 1469 1469 1468 1468 1468 1468 1468 1468 1468 1467 1467 1466 1466 1465 1464 1463 1463 1462 1461 1460 1460 1459 1458 1457 1456 1456 1455 1454 1453 1452 1451 1450 1450 1449 1449 1448 1447 1447 1446 1445 1445 1444 1444 1443 1443 1442 1442 1442 1441 1441
1464 1465 1465 1465 1465 1464 1464 1464 1465 1465 1466 1467 1467 1468 1468 1468 1468 1468 1468 1467 1467 1467 1467 1467 1467 1467 1467 1466 1466 1465 1464 1464 1463 1462 1461 1461 1460 1459 1458 1457 1457 1456 1455 1454 1453 1453 1452 1451 1450 1449 1448 1447 1447 1446 1445 1445 1444 1443 1443 1442 1441 1441 1440 1440 1439 1439 1439 1439 1438
1464 1464 1464 1464 1464 1463 1463 1464 1464 1465 1465 1466 1466 1466 1466 1466 1466 1466 1466 1466 1466 1466 1466 1466 1466 1465 1465 1464 1464 1463 1463 1462 1461 1460 1459 1458 1458 1457 1456 1455 1454 1453 1452 1452 1451 1450 1449 1448 1447 1447 1446 1445 1444 1443 1443 1442 1442 1441 1440 1439 1439 1438 1438 1437 1437 1437 1436 1436 1435
1463 1463 1463 1463 1463 1463 1463 1463 1464 1464 1464 1464 1465 1465 1465 1465 1464 1464 1464 1464 1464 1464 1464 1464 1464 1463 1463 1463 1462 1461 1460 1459 1459 1458 1457 1456 1455 1454 1453 1453 1452 1451 1450 1449 1448 1448 1447 1446 1445 1444 1443 1442 1441 1441 1440 1439 1439 1438 1438 1437 1436 1435 1435 1434 1434 1434 1433 1433 1433
1461 1462 1462 1462 1462 1462 1463 1463 1463 1463 1463 1463 1463 1463 1463 1463 1463 1463 1463 1463 1463 1463 1463 1462 1462 1462 1461 1460 1460 1459 1458 1457 1457 1456 1455 1454 1453 1452 1451 1450 1449 1448 1448 1447 1446 1445 1444 1443 1442 1441 1441 1440 1439 1438 1437 1437 1436 1435 1435 1434 1433 1433 1432 1432 1432 1431 1431 1430 1430
1461 1461 1461 1462 1462 1462 1462 1462 1462 1462 1462 1462 1462 1462 1462 1462 1462 1462 1462 1462 1462 1462 1461 1461 1460 1460 1459 1458 1458 1457 1456 1455 1454 1453 1453 1451 1450 1449 1448 1448 1447 1446 1445 1444 1443 1442 1441 1440 1439 1439 1438 1437 1436 1435 1434 1434 1433 1433 1432 1431 1431 1430 1429 1429 1429 1428 1428 1428 1427
1460 1461 1461 1461 1461 1461 1461 1461 1460 1460 1460 1460 1460 1460 1460 1460 1460 1461 1461 1461 1460 1460 1460 1459 1458 1458 1457 1456 1456 1455 1454 1453 1452 1451 1450 1449 1448 1447 1446 1445 1444 1443 1443 1441 1440 1439 1438 1438 1437 1436 1435 1434 1433 1433 1432 1431 1430 1429 1429 1428 1428 1427 1427 1426 1426 1426 1425 1425 1424
1460 1460 1460 1460 1460 1460 1460 1459 1459 1459 1459 1459 1459 1459 1459 1459 1460 1460 1459 1459 1459 1459 1458 1457 1457 1456 1455 1454 1453 1453 1452 1451 1450 1449 1448 1447 1446 1445 1444 1443 1442 1441 1440 1439 1438 1437 1436 1435 1434 1433 1432 1431 1430 1429 1429 1428 1427 1427 1426 1425 1425 1424 1424 1423 1423 1423 1423 1422 1421
1459 1460 1460 1460 1459 1458 1458 1458 1458 1458 1458 1458 1458 1458 1459 1459 1458 1458 1458 1458 1458 1457 1456 1455 1455 1454 1453 1452 1452 1451 1450 1449 1448 1447 1446 1445 1443 1442 1441 1440 1439 1438 1437 1436 1435 1434 1433 1432 1431 1430 1429 1428 1428 1427 1426 1425 1424 1424 1423 1423 1422 1422 1421 1421 1420 1420 1419 1419 1418
1459 1459 1458 1458 1458 1457 1457 1457 1457 1457 1457 1458 1458 1458 1458 1457 1457 1457 1457 1456 1456 1455 1454 1453 1453 1452 1451 1450 1449 1448 1448 1447 1446 1444 1443 1442 1441 1440 1438 1438 1436 1435 1434 1433 1432 1431 1430 1429 1428 1428 1427 1426 1425 1424 1423 1423 1422 1421 1421 1420 1419 1419 1418 1418 1417 1416 1416 1415 1415
1458 1457 1457 1457 1456 1456 1456 1456 1456 1456 1457 1457 1457 1456 1456 1456 1456 1455 1455 1454 1454 1453 1452 1451 1451 1450 1449 1448 1447 1446 1445 1444 1443 1442 1441 1439 1438 1437 1436 1435 1433 1432 1431 1430 1429 1428 1428 1427 1426 1425 1424 1423 1423 1422 1421 1420 1419 1419 1418 1417 1417 1416 1415 1414 1413 1413 1413 1412 1412
1456 1456 1456 1456 1455 1455 1455 1455 1456 1456 1456 1455 1455 1455 1455 1454 1454 1454 1453 1453 1452 1451 1450 1450 1449 1448 1447 1446 1445 1444 1443 1441 1440 1439 1438 1437 1435 1434 1433 1432 1431 1430 1429 1428 1427 1426 1425 1424 1423 1423 1422 1421 1420 1419 1418 1418 1417 1416 1415 1414 1414 1413 1412 1411 1411 1410 1409 1409 1408
1453 1453 1454 1454 1454 1454 1454 1454 1454 1454 1454 1454 1454 1453 1453 1453 1453 1452 1452 1451 1450 1450 1449 1448 1447 1446 1445 1444 1443 1441 1440 1439 1437 1436 1435 1434 1433 1432 1431 1430 1429 1428 1427 1426 1425 1424 1423 1422 1421 1420 1420 1419 1418 1417 1416 1415 1414 1413 1412 1411 1411 1410 1409 1408 1408 1407 1406 1405 1405
1452 1452 1452 1452 1452 1453 1453 1453 1453 1453 1453 1453 1453 1453 1452 1452 1451 1451 1450 1449 1449 1448 1447 1446 1445 1444 1443 1441 1440 1439 1438 1436 1435 1433 1432 1431 1430 1429 1428 1427 1426 1425 1424 1423 1423 1422 1421 1420 1419 1418 1417 1416 1415 1414 1413 1412 1411 1410 1409 1408 1407 1406 1405 1404 1403 1403 1402 1402 1401
1451 1451 1451 1451 1451 1451 1451 1451 1451 1452 1452 1452 1452 1451 1451 1450 1450 1449 1448 1448 1447 1446 1445 1443 1442 1441 1440 1439 1437 1436 1435 1434 1433 1432 1430 1429 1428 1427 1426 1425 1424 1423 1422 1421 1420 1420 1419 1418 1418 1417 1415 1414 1413 1411 1409 1408 1407 1407 1406 1405 1404 1403 1402 1400 1399 1399 1398 1398 1397
1449 1449 1449 1450 1450 1450 1450 1451 1451 1451 1451 1451 1450 1450 1449 1449 1448 1448 1447 1446 1445 1443 1442 1441 1440 1439 1438 1436 1435 1434 1433 1432 1431 1430 1429 1428 1427 1425 1424 1423 1422 1421 1420 1419 1418 1418 1417 1416 1415 1414 1413 1411 1410 1408 1407 1405 1404 1403 1403 1402 1400 1399 1398 1397 1396 1395 1394 1393 1393
1448 1448 1449 1449 1449 1450 1450 1450 1450 1450 1450 1449 1449 1448 1448 1447 1447 1446 1445 1443 1442 1441 1440 1439 1438 1437 1436 1434 1433 1432 1431 1430 1429 1428 1427 1426 1425 1423 1422 1421 1420 1419 1418 1417 1416 1416 1415 1414 1413 1412 1410 1408 1407 1405 1404 1403 1402 1400 1399 1398 1397 1396 1395 1393 1393 1392 1391 1390 1389
1448 1448 1449 1449 1449 1449 1449 1449 1449 1448 1448 1448 1447 1447 1446 1445 1445 1443 1443 1441 1440 1439 1438 1437 1436 1435 1433 1433 1431 1430 1429 1428 1427 1426 1425 1424 1423 1421 1420 1419 1418 1417 1416 1415 1414 1413 1412 1411 1410 1408 1407 1406 1404 1403 1401 1400 1398 1397 1396 1395 1393 1392 1391 1390 1389 1388 1388 1387 1387
1448 1448 1448 1448 1448 1448 1448 1448 1447 1447 1447 1446 1446 1445 1444 1443 1443 1442 1441 1439 1438 1437 1436 1435 1434 1433 1432 1430 1429 1428 1427 1426 1425 1424 1423 1422 1420 1419 1418 1417 1415 1414 1413 1413 1412 1410 1409 1408 1407 1405 1404 1403 1402 1400 1398 1397 1395 1394 1392 1391 1390 1389 1388 1387 1387 1386 1385 1385 1384
1447 1448 1447 1447 1447 1447 1446 1446 1446 1446 1445 1445 1444 1443 1443 1442 1441 1440 1439 1438 1436 1435 1434 1433 1432 1430 1429 1428 1427 1426 1425 1424 1423 1422 1421 1419 1418 1417 1415 1414 1413 1412 1411 1410 1409 1408 1406 1405 1403 1402 1401 1400 1398 1397 1395 1393 1392 1390 1389 1388 1387 1386 1385 1385 1384 1383 1383 1382 1382
1446 1446 1446 1446 1446 1445 1445 1445 1445 1444 1444 1443 1443 1442 1441 1440 1439 1438 1437 1435 1434 1433 1432 1431 1430 1428 1427 1426 1425 1424 1423 1422 1421 1420 1418 1417 1416 1414 1413 1411 1410 1409 1408 1407 1406 1404 1403 1402 1400 1399 1398 1396 1395 1393 1391 1390 1388 1387 1386 1385 1384 1384 1383 1383 1382 1381 1380 1380 1379
1445 1445 1445 1445 1445 1444 1444 1444 1443 1443 1443 1442 1441 1440 1439 1438 1437 1436 1435 1433 1432 1431 1430 1429 1428 1427 1426 1424 1423 1422 1421 1420 1418 1417 1416 1415 1413 1412 1410 1409 1408 1406 1405 1404 1403 1401 1400 1398 1397 1396 1394 1393 1391 1389 1388 1387 1386 1385 1384 1383 1382 1382 1381 1380 1379 1378 1378 1377 1376
1444 1444 1444 1444 1443 1443 1443 1443 1442 1442 1441 1440 1439 1438 1438 1436 1435 1434 1433 1432 1430 1429 1428 1427 1426 1425 1424 1423 1422 1420 1419 1418 1416 1415 1413 1412 1411 1409 1408 1406 1405 1403 1403 1401 1399 1398 1397 1395 1394 1392 1391 1389 1388 1387 1386 1385 1384 1383 1382 1381 1380 1379 1378 1378 1377 1376 1375 1374 1373
1443 1443 1443 1443 1442 1442 1442 1441 1441 1440 1440 1439 1438 1437 1436 1434 1433 1432 1431 1430 1429 1428 1427 1426 1424 1423 1422 1421 1419 1418 1417 1415 1414 1413 1411 1410 1408 1407 1405 1403 1402 1401 1399 1398 1397 1395 1393 1392 1391 1389 1388 1387 1386 1385 1384 1383 1382 1380 1379 1378 1377 1377 1376 1375 1374 1373 1373 1372 1371
1442 1442 1442 1441 1441 1441 1440 1440 1439 1439 1438 1437 1436 1435 1433 1433 1431 1430 1429 1428 1427 1426 1425 1423 1423 1421 1420 1418 1417 1416 1415 1413 1412 1410 1409 1408 1406 1404 1403 1401 1399 1398 1397 1395 1393 1392 1391 1389 1388 1387 1386 1385 1384 1383 1382 1381 1379 1378 1377 1376 1375 1374 1373 1372 1371 1370 1370 1369 1368
1441 1441 1440 1440 1439 1439 1439 1438 1438 1437 1436 1435 1434 1433 1432 1431 1430 1429 1428 1427 1425 1424 1423 1422 1420 1419 1418 1417 1415 1414 1413 1411 1410 1408 1407 1405 1404 1402 1400 1398 1396 1395 1393 1392 1391 1389 1388 1387 1386 1385 1384 1383 1382 1381 1380 1378 1377 1376 1374 1373 1373 1371 1370 1370 1368 1368 1367 1366 1365
1440 1439 1439 1438 1438 1438 1437 1437 1436 1435 1434 1433 1432 1431 1430 1429 1428 1427 1426 1425 1424 1422 1421 1419 1418 1417 1416 1415 1413 1412 1410 1409 1408 1406 1405 1403 1401 1400 1398 1396 1394 1392 1391 1389 1388 1387 1386 1385 1384 1383 1383 1382 1380 1379 1378 1376 1375 1373 1372 1371 1370 1369 1368 1367 1366 1365 1364 1363 1363
1438 1438 1438 1437 1437 1436 1436 1435 1434 1433 1433 1432 1431 1430 1429 1428 1427 1425 1424 1423 1422 1421 1419 1418 1417 1415 1414 1413 1411 1409 1408 1407 1406 1404 1403 1401 1399 1398 1396 1393 1391 1389 1388 1387 1386 1385 1384 1383 1382 1382 1381 1380 1379 1377 1376 1374 1373 1371 1370 1369 1368 1366 1365 1365 1364 1363 1362 1361 1361
1437 1437 1436 1436 1435 1435 1434 1434 1433 1432 1431 1430 1429 1428 1427 1426 1425 1423 1422 1421 1420 1419 1418 1416 1415 1413 1412 1410 1409 1407 1406 1404 1403 1402 1400 1398 1397 1395 1393 1391 1389 1387 1386 1385 1384 1383 1382 1381 1381 1380 1379 1378 1377 1375 1374 1372 1371 1369 1368 1367 1366 1365 1364 1363 1362 1361 1360 1358 1358
1436 1435 1435 1435 1434 1434 1433 1433 1432 1431 1430 1429 1428 1427 1425 1424 1423 1422 1421 1419 1418 1417 1416 1414 1413 1411 1410 1408 1407 1405 1403 1402 1401 1399 1398 1396 1394 1393 1391 1389 1387 1385 1384 1383 1382 1381 1381 1380 1379 1379 1378 1377 1375 1373 1372 1371 1369 1368 1367 1366 1365 1363 1362 1360 1359 1358 1357 1355 1354